DLH64P EDDH-EDDM

Flight info

Callsign DLH64P
Flight time N/A
Altitude 29000
Route AMLUH2G/33 AMLUH M852 DENIX DCT ZUCKA DCT SODRO T703 LULAR T105 LANDU LANDU2B
Aircraft A320/M-SDE3FGHIRWY/LB1

Departure

Time 2026-05-05 13:33
Airport Hamburg Helmut Schmidt Airport (EDDH)

Arrival

Time N/A
Airport Munich Airport (EDDM)
Time Latitude Longitude Altitude Speed Heading
2026-05-05 12:35 53.63449 10.00314 47 ft 0 kts 86°
2026-05-05 13:24 53.63448 10.00296 47 ft 2 kts 86°
2026-05-05 13:24 53.63447 10.00267 47 ft 2 kts 86°
2026-05-05 13:24 53.63446 10.00247 44 ft 2 kts 86°
2026-05-05 13:25 53.63447 10.00219 44 ft 2 kts 138°
2026-05-05 13:25 53.63463 10.00209 44 ft 2 kts 190°
2026-05-05 13:25 53.63471 10.00211 46 ft 0 kts 179°
2026-05-05 13:27 53.63455 10.00212 46 ft 11 kts 178°
2026-05-05 13:28 53.63308 10.00235 48 ft 25 kts 176°
2026-05-05 13:28 53.63133 10.00258 48 ft 26 kts 175°
2026-05-05 13:28 53.62975 10.00163 48 ft 25 kts 213°
2026-05-05 13:28 53.62868 10.00035 48 ft 15 kts 232°
2026-05-05 13:29 53.62847 9.99970 48 ft 0 kts 242°
2026-05-05 13:29 53.62844 9.99960 48 ft 8 kts 242°
2026-05-05 13:30 53.62809 9.99848 45 ft 8 kts 247°
2026-05-05 13:30 53.62824 9.99778 45 ft 6 kts 322°
2026-05-05 13:30 53.62842 9.99766 45 ft 0 kts 336°
2026-05-05 13:32 53.62843 9.99765 45 ft 2 kts 336°
2026-05-05 13:32 53.62958 9.99666 45 ft 39 kts 332°
2026-05-05 13:32 53.63408 9.99295 47 ft 104 kts 334°
2026-05-05 13:33 53.64215 9.98611 54 ft 154 kts 332°
2026-05-05 13:33 53.65225 9.97717 493 ft 161 kts 335°
2026-05-05 13:33 53.66229 9.96854 1099 ft 163 kts 334°
2026-05-05 13:33 53.67270 9.95932 1532 ft 179 kts 335°
2026-05-05 13:34 53.68436 9.94934 1907 ft 196 kts 336°
2026-05-05 13:34 53.69700 9.93895 2362 ft 208 kts 338°
2026-05-05 13:34 53.71176 9.93519 2638 ft 228 kts
2026-05-05 13:34 53.72666 9.94467 3247 ft 232 kts 42°
2026-05-05 13:35 53.73415 9.96726 4318 ft 218 kts 84°
2026-05-05 13:35 53.73560 9.99328 4868 ft 231 kts 79°
2026-05-05 13:35 53.73909 10.02020 5459 ft 237 kts 78°
2026-05-05 13:35 53.73831 10.04798 6044 ft 245 kts 109°
2026-05-05 13:36 53.72984 10.07436 6337 ft 267 kts 122°
2026-05-05 13:36 53.71999 10.10219 6810 ft 281 kts 121°
2026-05-05 13:36 53.71022 10.13121 7496 ft 288 kts 121°
2026-05-05 13:36 53.70048 10.16063 8263 ft 291 kts 121°
2026-05-05 13:37 53.68910 10.18855 9097 ft 289 kts 138°
2026-05-05 13:37 53.67257 10.20814 9880 ft 289 kts 157°
2026-05-05 13:37 53.65349 10.21971 10312 ft 300 kts 167°
2026-05-05 13:37 53.63273 10.22915 10484 ft 323 kts 167°
2026-05-05 13:38 53.61006 10.23953 10628 ft 346 kts 167°
2026-05-05 13:38 53.58626 10.25046 10974 ft 360 kts 167°
2026-05-05 13:38 53.56190 10.26166 11567 ft 365 kts 167°
2026-05-05 13:38 53.53727 10.27302 12202 ft 369 kts 166°
2026-05-05 13:39 53.51239 10.28446 12834 ft 373 kts 166°
2026-05-05 13:39 53.48724 10.29597 13449 ft 377 kts 167°
2026-05-05 13:39 53.46179 10.30756 14013 ft 381 kts 167°
2026-05-05 13:39 53.43605 10.31926 14568 ft 385 kts 167°
2026-05-05 13:40 53.41014 10.33102 15138 ft 388 kts 167°
2026-05-05 13:40 53.38392 10.34284 15709 ft 392 kts 167°
2026-05-05 13:40 53.35750 10.35470 16286 ft 395 kts 168°
2026-05-05 13:40 53.33086 10.36666 16825 ft 398 kts 168°
2026-05-05 13:41 53.30398 10.37876 17375 ft 402 kts 168°
2026-05-05 13:41 53.27687 10.39090 17892 ft 405 kts 167°
2026-05-05 13:41 53.24958 10.40310 18445 ft 408 kts 167°
2026-05-05 13:41 53.22210 10.41538 18964 ft 410 kts 167°
2026-05-05 13:42 53.19443 10.42772 19464 ft 412 kts 168°
2026-05-05 13:42 53.16667 10.44007 19940 ft 415 kts 168°
2026-05-05 13:42 53.13870 10.45247 20407 ft 417 kts 168°
2026-05-05 13:42 53.11049 10.46411 20862 ft 418 kts 170°
2026-05-05 13:43 53.08196 10.47399 21297 ft 419 kts 172°
2026-05-05 13:43 53.05320 10.48265 21736 ft 421 kts 173°
2026-05-05 13:43 53.02419 10.49081 22162 ft 423 kts 174°
2026-05-05 13:43 52.99513 10.49902 22579 ft 425 kts 174°
2026-05-05 13:44 52.96593 10.50754 22985 ft 427 kts 173°
2026-05-05 13:44 52.93663 10.51634 23380 ft 429 kts 173°
2026-05-05 13:44 52.90753 10.52525 23711 ft 431 kts 173°
2026-05-05 13:44 52.87761 10.53454 24038 ft 433 kts 173°
2026-05-05 13:45 52.84842 10.54368 24365 ft 434 kts 173°
2026-05-05 13:45 52.81868 10.55301 24683 ft 435 kts 173°
2026-05-05 13:45 52.78890 10.56232 25011 ft 436 kts 173°
2026-05-05 13:45 52.75906 10.57158 24934 ft 437 kts 173°
2026-05-05 13:46 52.72912 10.58080 24058 ft 438 kts 173°
2026-05-05 13:46 52.69916 10.58995 23249 ft 437 kts 173°
2026-05-05 13:46 52.66932 10.59906 22454 ft 434 kts 173°
2026-05-05 13:46 52.63972 10.60809 21740 ft 431 kts 172°
2026-05-05 13:47 52.61033 10.61705 21060 ft 428 kts 172°
2026-05-05 13:47 52.58115 10.62596 20405 ft 425 kts 172°
2026-05-05 13:47 52.55223 10.63480 19771 ft 422 kts 172°
2026-05-05 13:47 52.52347 10.64359 19172 ft 419 kts 171°
2026-05-05 13:48 52.49497 10.65227 18628 ft 415 kts 171°
2026-05-05 13:48 52.46668 10.66081 18046 ft 412 kts 171°
2026-05-05 13:48 52.43858 10.66925 17431 ft 409 kts 171°
2026-05-05 13:48 52.41073 10.67760 16874 ft 405 kts 171°
2026-05-05 13:49 52.38314 10.68590 16330 ft 401 kts 171°
2026-05-05 13:49 52.35580 10.69416 15808 ft 397 kts 171°
2026-05-05 13:49 52.32874 10.70234 15290 ft 394 kts 171°
2026-05-05 13:49 52.30194 10.71047 14785 ft 390 kts 172°
2026-05-05 13:50 52.27573 10.71841 14278 ft 386 kts 172°
2026-05-05 13:50 52.25139 10.72573 13827 ft 383 kts 172°
2026-05-05 13:50 52.22530 10.73352 13282 ft 379 kts 172°
2026-05-05 13:50 52.19944 10.74124 12706 ft 376 kts 172°
2026-05-05 13:51 52.17395 10.74992 12157 ft 375 kts 164°
2026-05-05 13:51 52.15133 10.77060 11658 ft 377 kts 140°
2026-05-05 13:51 52.13545 10.80428 11111 ft 379 kts 117°
2026-05-05 13:51 52.12925 10.84531 10924 ft 370 kts 94°
2026-05-05 13:52 52.13265 10.88592 10790 ft 358 kts 71°
2026-05-05 13:52 52.14452 10.92052 10664 ft 345 kts 49°
2026-05-05 13:52 52.16254 10.94488 10546 ft 331 kts 27°
2026-05-05 13:52 52.18369 10.95713 10420 ft 317 kts
2026-05-05 13:53 52.20514 10.95731 10297 ft 302 kts 347°
2026-05-05 13:53 52.22278 10.94824 10187 ft 289 kts 330°
2026-05-05 13:53 52.23892 10.93033 10068 ft 275 kts 313°
2026-05-05 13:53 52.25074 10.90676 9939 ft 264 kts 297°
2026-05-05 13:54 52.25825 10.87987 9648 ft 259 kts 288°
2026-05-05 13:54 52.26476 10.85246 9287 ft 259 kts 288°
2026-05-05 13:54 52.27197 10.82559 8934 ft 258 kts 295°
2026-05-05 13:54 52.28157 10.80105 8610 ft 258 kts 310°
2026-05-05 13:55 52.29586 10.78410 8264 ft 260 kts 335°
2026-05-05 13:55 52.31363 10.77878 7896 ft 263 kts
2026-05-05 13:55 52.33197 10.78409 7507 ft 264 kts 10°
2026-05-05 13:55 52.34960 10.79021 7151 ft 263 kts 10°
2026-05-05 13:56 52.36749 10.79589 6803 ft 260 kts
2026-05-05 13:56 52.38490 10.79166 6450 ft 251 kts 333°
2026-05-05 13:56 52.39433 10.78227 6194 ft 247 kts 318°
2026-05-05 13:56 52.40891 10.76160 5723 ft 246 kts 316°
2026-05-05 13:57 52.42093 10.74433 5364 ft 246 kts 321°
2026-05-05 13:57 52.43618 10.73208 5006 ft 247 kts 346°
2026-05-05 13:57 52.45325 10.73158 4629 ft 247 kts 12°
2026-05-05 13:57 52.46808 10.74238 4271 ft 248 kts 36°
2026-05-05 13:58 52.47935 10.76351 3969 ft 247 kts 63°
2026-05-05 13:58 52.48408 10.79052 3950 ft 249 kts 88°
2026-05-05 13:58 52.48236 10.81451 3944 ft 249 kts 110°
2026-05-05 13:58 52.47364 10.83875 3947 ft 248 kts 136°
2026-05-05 13:59 52.44312 10.85945 3510 ft 240 kts 186°
2026-05-05 13:59 52.42716 10.85258 3104 ft 238 kts 207°
2026-05-05 14:00 52.39788 10.82741 2426 ft 234 kts 210°
2026-05-05 14:00 52.38850 10.81881 2207 ft 233 kts 210°
2026-05-05 14:00 52.36963 10.80155 1998 ft 234 kts 209°
2026-05-05 14:00 52.35601 10.78673 1997 ft 235 kts 227°
2026-05-05 14:01 52.34793 10.76408 2002 ft 231 kts 258°
2026-05-05 14:01 52.34749 10.73841 2005 ft 226 kts 287°
2026-05-05 14:01 52.35444 10.71585 2014 ft 220 kts 315°
2026-05-05 14:01 52.36614 10.70191 1996 ft 200 kts 341°
2026-05-05 14:02 52.37932 10.69785 2036 ft 187 kts
2026-05-05 14:02 52.39136 10.70223 2007 ft 171 kts 24°
2026-05-05 14:02 52.40168 10.71058 1999 ft 162 kts 27°
2026-05-05 14:02 52.41131 10.71922 1997 ft 158 kts 28°
2026-05-05 14:03 52.42090 10.72791 2008 ft 157 kts 28°
2026-05-05 14:03 52.43040 10.73648 2003 ft 156 kts 28°
2026-05-05 14:03 52.44001 10.74514 1929 ft 158 kts 28°
2026-05-05 14:03 52.44959 10.75381 1859 ft 156 kts 29°
2026-05-05 14:04 52.45571 10.76060 1816 ft 156 kts 39°
2026-05-05 14:04 52.46286 10.77394 1806 ft 159 kts 56°
2026-05-05 14:04 52.46694 10.79058 1806 ft 160 kts 77°
2026-05-05 14:04 52.46726 10.80899 1806 ft 164 kts 97°
2026-05-05 14:05 52.46324 10.82650 1783 ft 168 kts 126°
2026-05-05 14:05 52.45400 10.83736 1786 ft 163 kts 164°
2026-05-05 14:05 52.44288 10.83807 1842 ft 159 kts 183°
2026-05-05 14:05 52.43194 10.83718 1810 ft 156 kts 182°
2026-05-05 14:06 52.42109 10.83638 1804 ft 156 kts 182°
2026-05-05 14:06 52.41023 10.83560 1805 ft 156 kts 182°
2026-05-05 14:06 52.39934 10.83482 1802 ft 156 kts 182°
2026-05-05 14:06 52.38853 10.83402 1807 ft 155 kts 182°
2026-05-05 14:07 52.37763 10.83318 1800 ft 158 kts 181°
2026-05-05 14:07 52.36656 10.83234 1807 ft 161 kts 181°
2026-05-05 14:07 52.35540 10.83150 1803 ft 159 kts 181°
2026-05-05 14:07 52.34436 10.82995 1785 ft 162 kts 195°
2026-05-05 14:08 52.33557 10.81949 1806 ft 156 kts 239°
2026-05-05 14:08 52.33265 10.80288 1821 ft 152 kts 270°
2026-05-05 14:08 52.33180 10.78563 1806 ft 153 kts 269°
2026-05-05 14:08 52.33086 10.76833 1815 ft 152 kts 268°
2026-05-05 14:09 52.32991 10.75113 1806 ft 153 kts 267°
2026-05-05 14:09 52.32896 10.73383 1812 ft 152 kts 269°
2026-05-05 14:09 52.32803 10.71662 1805 ft 151 kts 268°
2026-05-05 14:09 52.32709 10.69952 1755 ft 151 kts 267°
2026-05-05 14:10 52.32617 10.68258 1602 ft 150 kts 269°
2026-05-05 14:10 52.32523 10.66541 1426 ft 151 kts 269°
2026-05-05 14:10 52.32431 10.64840 1230 ft 150 kts 268°
2026-05-05 14:10 52.32339 10.63127 1044 ft 151 kts 270°
2026-05-05 14:11 52.32247 10.61383 734 ft 156 kts 266°
2026-05-05 14:11 52.32144 10.59654 594 ft 150 kts 266°
2026-05-05 14:11 52.32053 10.57935 368 ft 153 kts 267°
2026-05-05 14:11 52.31982 10.56358 298 ft 105 kts 265°
2026-05-05 14:12 52.31910 10.55576 292 ft 53 kts 268°
2026-05-05 14:12 52.31890 10.55001 285 ft 48 kts 266°
2026-05-05 14:12 52.31841 10.54685 287 ft 25 kts 210°
2026-05-05 14:12 52.31722 10.54680 286 ft 14 kts 175°
2026-05-05 14:13 52.31642 10.54692 285 ft 5 kts 174°
2026-05-05 14:13 52.31615 10.54702 289 ft 2 kts 149°
2026-05-05 14:13 52.31614 10.54704 289 ft 0 kts 142°